Crane Lake, MN

1:30 AM CDT on May 25, 2017 (GMT -0500)
Crane Lake

Weather History for KCDD - August, 2014

Change the Weather History Date:

Friday, August 15, 2014

  Actual Average Record
Temperature  
Mean Temperature 63 °F -  
Max Temperature 80 °F 73 °F 89 °F (2003)
Min Temperature 46 °F 52 °F 37 °F (2013)
Degree Days  
Heating Degree Days 2    
Growing Degree Days 13 (Base 50)    
Moisture  
Dew Point 58 °F    
Average Humidity 77    
Maximum Humidity 100    
Minimum Humidity 51    
Precipitation  
Precipitation 0.00 in - - ()
Sea Level Pressure  
Sea Level Pressure 29.91 in    
Wind  
Wind Speed 2 mph (SSW)    
Max Wind Speed 13 mph    
Max Gust Speed 21 mph    
Visibility 10 miles    
Events Rain , Thunderstorm    
Averages and records for this station are not official NWS values.
T = Trace of Precipitation, MM = Missing Value Source: NWS Daily Summary

Daily Weather History Graph

Daily Weather History Graph

Search for Another Location

Airport or City:

Trip Planner

Search our weather history database for the weather conditions in past years. The results will help you decide how hot, cold, wet, or windy it might be!

Date:

Astronomy

Aug. 15, 2014 Rise Set
Actual Time 6:04 AM CDT 8:23 PM CDT
Civil Twilight 5:29 AM CDT 8:57 PM CDT
Nautical Twilight 4:46 AM CDT 9:40 PM CDT
Astronomical Twilight 3:57 AM CDT 10:29 PM CDT
Moon 10:54 PM CDT (8/15) 12:17 PM CDT (8/15)
Length of Visible Light 15h 28m
Length of Day
14h 19m
Waning Gibbous, 69% of the Moon is Illuminated
Aug 15
Waning Gibbous
Aug 17
Last Quarter
Aug 25
New
Sep 2
First Quarter
Sep 8
Full

Hourly Weather History & Observations

Time (CDT) Temp. Heat Index Dew Point Humidity Pressure Visibility Wind Dir Wind Speed Gust Speed Precip Events Conditions
12:13 AM 48.2 °F - 48.2 °F 100% 30.01 in 10.0 mi Calm Calm - N/A   Clear
12:32 AM 48.2 °F - 46.4 °F 93% 30.01 in 10.0 mi Calm Calm - N/A   Clear
12:52 AM 48.2 °F - 46.4 °F 93% 30.00 in 10.0 mi Calm Calm - N/A   Clear
1:12 AM 48.2 °F - 46.4 °F 93% 30.00 in 10.0 mi Calm Calm - N/A   Clear
1:32 AM 46.4 °F - 46.4 °F 100% 29.99 in 10.0 mi Calm Calm - N/A   Clear
1:52 AM 46.4 °F - 46.4 °F 100% 29.99 in 10.0 mi Calm Calm - N/A   Clear
2:12 AM 46.4 °F - 46.4 °F 100% 29.98 in 10.0 mi Calm Calm - N/A   Clear
2:32 AM 46.4 °F - 46.4 °F 100% 29.98 in 10.0 mi Calm Calm - N/A   Clear
2:52 AM 46.4 °F - 46.4 °F 100% 29.98 in 10.0 mi Calm Calm - N/A   Clear
3:12 AM 46.4 °F - 46.4 °F 100% 29.98 in 10.0 mi Calm Calm - N/A   Clear
3:32 AM 48.2 °F - 48.2 °F 100% 29.98 in 10.0 mi Calm Calm - N/A   Clear
3:52 AM 48.2 °F - 48.2 °F 100% 29.97 in 10.0 mi Calm Calm - N/A   Clear
4:12 AM 48.2 °F - 48.2 °F 100% 29.97 in 10.0 mi Calm Calm - N/A   Clear
4:32 AM 48.2 °F - 48.2 °F 100% 29.97 in 10.0 mi Calm Calm - N/A   Clear
4:52 AM 48.2 °F - 48.2 °F 100% 29.97 in 10.0 mi Calm Calm - N/A   Scattered Clouds
5:12 AM 51.8 °F - 51.8 °F 100% 29.97 in 10.0 mi South 3.5 mph - N/A   Overcast
5:32 AM 55.4 °F - 53.6 °F 94% 29.97 in 10.0 mi Calm Calm - N/A   Overcast
5:52 AM 53.6 °F - 53.6 °F 100% 29.97 in 10.0 mi Calm Calm - N/A   Mostly Cloudy
6:12 AM 53.6 °F - 51.8 °F 94% 29.97 in 10.0 mi Calm Calm - N/A   Scattered Clouds
6:32 AM 51.8 °F - 51.8 °F 100% 29.97 in 10.0 mi Calm Calm - N/A   Scattered Clouds
6:52 AM 53.6 °F - 53.6 °F 100% 29.97 in 10.0 mi Calm Calm - N/A   Scattered Clouds
7:12 AM 53.6 °F - 53.6 °F 100% 29.98 in 10.0 mi Calm Calm - N/A   Mostly Cloudy
7:32 AM 55.4 °F - 55.4 °F 100% 29.98 in 10.0 mi Calm Calm - N/A   Scattered Clouds
7:52 AM 59.0 °F - 57.2 °F 94% 29.98 in 10.0 mi SSE 3.5 mph - N/A   Mostly Cloudy
8:12 AM 60.8 °F - 57.2 °F 88% 29.97 in 10.0 mi Calm Calm - N/A   Mostly Cloudy
8:32 AM 62.6 °F - 57.2 °F 82% 29.96 in 10.0 mi Calm Calm - N/A   Scattered Clouds
8:52 AM 64.4 °F - 59.0 °F 83% 29.97 in 10.0 mi SSW 3.5 mph - N/A   Clear
9:12 AM 66.2 °F - 60.8 °F 83% 29.96 in 10.0 mi Calm Calm - N/A   Clear
9:32 AM 68.0 °F - 60.8 °F 78% 29.95 in 10.0 mi Calm Calm - N/A   Clear
9:52 AM 69.8 °F - 62.6 °F 78% 29.95 in 10.0 mi South 3.5 mph - N/A   Clear
10:12 AM 71.6 °F - 62.6 °F 73% 29.95 in 10.0 mi South 3.5 mph - N/A   Clear
10:32 AM 71.6 °F - 62.6 °F 73% 29.94 in 10.0 mi South 4.6 mph - N/A   Clear
10:52 AM 73.4 °F - 64.4 °F 73% 29.94 in 10.0 mi West 3.5 mph - N/A   Clear
11:12 AM 73.4 °F - 62.6 °F 69% 29.93 in 10.0 mi SW 3.5 mph - N/A   Clear
11:32 AM 75.2 °F - 62.6 °F 65% 29.93 in 10.0 mi South 4.6 mph - N/A   Clear
11:52 AM 75.2 °F - 62.6 °F 65% 29.92 in 10.0 mi Calm Calm - N/A   Clear
12:12 PM 77.0 °F - 60.8 °F 57% 29.92 in 10.0 mi Calm Calm - N/A   Clear
12:32 PM 77.0 °F - 60.8 °F 57% 29.91 in 10.0 mi SSW 3.5 mph - N/A   Clear
12:52 PM 78.8 °F - 60.8 °F 54% 29.90 in 10.0 mi West 4.6 mph - N/A   Clear
1:12 PM 78.8 °F - 62.6 °F 57% 29.89 in 10.0 mi SW 8.1 mph - N/A   Clear
1:32 PM 78.8 °F - 62.6 °F 57% 29.89 in 10.0 mi South 4.6 mph - N/A   Clear
1:52 PM 78.8 °F - 62.6 °F 57% 29.88 in 10.0 mi South 8.1 mph - N/A   Clear
2:12 PM 80.6 °F 81.5 °F 60.8 °F 51% 29.88 in 10.0 mi South 4.6 mph - N/A   Clear
2:32 PM 80.6 °F 81.5 °F 60.8 °F 51% 29.87 in 10.0 mi WSW 6.9 mph - N/A   Clear
2:52 PM 80.6 °F 81.5 °F 60.8 °F 51% 29.87 in 10.0 mi SSW 5.8 mph - N/A   Clear
3:12 PM 80.6 °F 81.5 °F 60.8 °F 51% 29.87 in 10.0 mi SSW 3.5 mph - N/A   Clear
3:32 PM 80.6 °F 81.5 °F 60.8 °F 51% 29.87 in 10.0 mi SSW 6.9 mph - N/A   Clear
3:52 PM 80.6 °F 81.5 °F 60.8 °F 51% 29.86 in 10.0 mi West 4.6 mph - N/A   Clear
4:12 PM 80.6 °F 81.8 °F 62.6 °F 54% 29.85 in 10.0 mi SSW 8.1 mph - N/A   Clear
4:32 PM 80.6 °F 81.8 °F 62.6 °F 54% 29.84 in 10.0 mi SSW 5.8 mph - N/A   Clear
4:52 PM 80.6 °F 81.8 °F 62.6 °F 54% 29.83 in 10.0 mi SSW 8.1 mph - N/A   Clear
5:12 PM 80.6 °F 81.8 °F 62.6 °F 54% 29.83 in 10.0 mi SW 4.6 mph - N/A   Clear
5:32 PM 80.6 °F 81.8 °F 62.6 °F 54% 29.84 in 10.0 mi SSW 5.8 mph - N/A   Clear
5:52 PM 80.6 °F 81.5 °F 60.8 °F 51% 29.83 in 10.0 mi SW 6.9 mph - N/A   Clear
6:12 PM 80.6 °F 81.8 °F 62.6 °F 54% 29.83 in 10.0 mi SSW 4.6 mph - N/A   Clear
6:32 PM 78.8 °F - 62.6 °F 57% 29.82 in 10.0 mi SSW 3.5 mph - N/A   Clear
6:52 PM 77.0 °F - 62.6 °F 61% 29.83 in 10.0 mi SSW 3.5 mph - N/A   Clear
7:12 PM 77.0 °F - 64.4 °F 65% 29.83 in 10.0 mi Calm Calm - N/A   Clear
7:32 PM 75.2 °F - 64.4 °F 69% 29.83 in 10.0 mi Calm Calm - N/A   Scattered Clouds
7:52 PM 75.2 °F - 64.4 °F 69% 29.82 in 10.0 mi Calm Calm - N/A   Scattered Clouds
8:12 PM 73.4 °F - 62.6 °F 69% 29.82 in 10.0 mi South 3.5 mph - N/A   Clear
8:32 PM 69.8 °F - 64.4 °F 83% 29.83 in 10.0 mi South 3.5 mph - N/A   Scattered Clouds
8:52 PM 71.6 °F - 64.4 °F 78% 29.82 in 10.0 mi South 3.5 mph - N/A   Scattered Clouds
9:12 PM 71.6 °F - 62.6 °F 73% 29.82 in 10.0 mi South 3.5 mph - N/A   Scattered Clouds
9:32 PM 71.6 °F - 62.6 °F 73% 29.81 in 10.0 mi South 3.5 mph - N/A   Clear
9:52 PM 71.6 °F - 62.6 °F 73% 29.80 in 10.0 mi South 4.6 mph - N/A   Clear
10:12 PM 71.6 °F - 62.6 °F 73% 29.80 in 10.0 mi SSW 4.6 mph - N/A   Clear
10:32 PM 71.6 °F - 62.6 °F 73% 29.85 in 10.0 mi NNW 12.7 mph 20.7 mph N/A Thunderstorm Scattered Clouds
10:52 PM 66.2 °F - 64.4 °F 94% 29.84 in 10.0 mi Calm Calm - N/A Rain , Thunderstorm Light Thunderstorms and Rain
11:12 PM 64.4 °F - 64.4 °F 100% 29.83 in 10.0 mi Calm Calm - N/A Thunderstorm Overcast
11:32 PM 64.4 °F - 64.4 °F 100% 29.84 in 10.0 mi Calm Calm - N/A Rain Light Rain